FENGYUN 1C DEB

Satellite information

Favourite Embed

Satellite Type and Status

DEBRISIN ORBIT

Key statistics

Satellite FENGYUN 1C DEB at a glance.

Uptime

9495

Days in orbit

Revolutions

≈ 14.1

Per day

Orbit

SSO

Sun Synchronous Orbit

Inclination

98.7

Latest

Satellite identification and parameters

Extended collection of information and parameters for FENGYUN 1C DEB.

Object identification

Identified? True

Debris? True

Object name: FENGYUN 1C DEB

International designator: 1999-025AVQ

Object number (NORAD): 30830

Object ID (CCSDS): 30830

Country: PEOPLES REPUBLIC OF CHINA (PRC)

Current information (Y/N): Y

RCS size: SMALL

Orbital parameters

Period: 101.985 minutes

Inclination: 98.7139 deg

SMA: 7230.767 km

Apoapsis: 876.053 km

Periapsis: 829.21 km

RAAN: 122.0782 deg

Eccentricy: 0.0032391

Argument of periapsis: 92.7516 deg

Mean anomaly: 85.4459 deg

Mean motion: 14.11972507 rev/day

Mean motion (dot): 0.00000649 rev/day2

B* drag term: 0.000376 1/REarth

Two-line elements (TLE)

Creation date: May 8, 2025, 3:01 a.m.

Reference frame: TEME

Reference center: EARTH

Epoch: May 7, 2025, 5:21 p.m. UTC

TLE line 0: 0 FENGYUN 1C DEB

TLE line 1: 1 30830U 99025AVQ 25127.72355081 .00000649 00000-0 37600-3 0 9995

TLE line 2: 2 30830 98.7139 122.0782 0032391 92.7516 85.4459 14.11972507935080

Live tracking on map

Real-time ground track for satellite FENGYUN 1C DEB.

In-orbit conjunctions

A list of the most updated potential collisions computed for object FENGYUN 1C DEB.

Target Orbit TCA Probability of collision Miss distance Type
CZ-6A DEB LEO 2025-02-12 04:43:29 0.0005909933 748.0 (m) DEBRIS
FENGYUN 1C DEB SSO 2025-01-12 18:17:12 0.0001879384 320.0 (m) DEBRIS

Associated space launch

Chinese polar orbiting meteorological satellite

FENGYUN 1C DEB was lifted into orbit during the mission ‘Long March 4B | Feng Yun 1C’, on board a Long March 4B space rocket.

The launch took place on May 10, 1999, 1:33 a.m. from Launch Complex 7.

For more information about the launch, click the button.

Launch to space Long March 4B | Feng Yun 1C
Long March 4B | Feng Yun 1C

Agency: N/A

Status: Launch Successful

Launch date: May 10, 1999, 1:33 a.m. UTC

Rocket: Long March 4B

Launch pad: Launch Complex 7

Location: Taiyuan Satellite Launch Center, People's Republic of China

...

Latest news about this satellite

There are no fresh news available about this satellite. Check back as we update our databases every day.


Newsletter sign-up

Weekly statistics, charts and insights to help you stay on top of the space industry.